Temp
21 23 22 22 22 22 22 22 22 21 20 20 21 21 21 21 20 20 20 20 21 20 19 19 19 19 19 20 19 19 19 19 15 13 14 14 14 14 14 14 14 14 14
22 22 22 22 22 22 22 22 22 21 21 20 20 19 19 20 19 20 20 20 20 20 20 20 20 20 19 19 19 19 19 18 16 14 13 13 13 13 13 13 13 13 13
22 22 23 23 23 22 22 22 22 21 21 21 20 19 19 19 19 19 19 19 19 19 19 19 19 19 19 19 19 19 18 16 15 14 13 13 12 13 13 13 13 13 13
23 23 23 23 23 22 22 21 21 21 21 21 20 20 19 19 19 19 19 19 19 18 18 18 19 19 19 18 18 17 17 16 15 14 13 12 12 12 12 12 12 12 13
24 24 23 23 22 22 22 21 21 21 21 21 21 21 20 20 20 19 19 19 19 19 19 19 17 18 18 18 18 18 18 18 18 16 13 12 12 12 12 12 12 13 14
23 23 22 22 22 22 22 21 21 21 21 21 21 21 21 22 19 19 19 20 19 19 19 19 18 17 17 18 18 17 17 18 18 16 14 13 12 12 12 13 16 15 16
22 23 22 22 22 22 21 21 21 21 21 20 20 20 21 21 18 18 18 20 20 19 19 19 20 19 18 17 16 15 16 16 16 16 16 14 13 13 14 14 14 15 18
22 22 22 22 22 21 21 21 21 21 21 20 20 20 20 20 19 18 18 18 19 19 19 19 19 19 18 18 19 18 17 16 15 16 16 15 15 14 13 14 14 15 15
22 22 22 22 22 21 21 21 21 21 20 21 21 20 19 20 19 18 18 19 19 19 19 18 18 19 17 17 19 19 18 17 15 15 15 15 15 14 13 13 13 15 17
23 22 21 22 22 22 22 21 21 21 21 22 21 21 20 20 19 18 18 19 18 19 19 18 17 17 17 16 17 18 18 18 17 15 14 14 14 14 14 14 15 16 17
22 21 22 22 22 22 21 21 21 21 22 22 22 21 20 19 19 18 18 19 21 21 21 20 20 18 17 16 16 17 18 17 16 16 16 15 14 14 14 14 15 16 16
22 22 22 22 22 21 21 21 21 21 21 21 21 21 21 20 19 18 18 18 19 20 21 21 20 17 17 17 16 16 16 16 17 18 18 18 17 16 16 15 15 15 17
22 21 21 21 21 22 21 21 21 20 22 22 22 22 22 21 20 18 18 18 17 17 19 19 17 16 16 16 16 16 15 16 18 19 19 19 18 18 17 15 15 14 14
22 22 21 21 21 21 21 21 20 21 22 22 23 22 21 20 19 19 17 16 16 16 16 16 15 16 16 15 15 15 15 16 18 19 19 19 18 18 16 17 17 16 17
22 22 21 22 21 21 20 20 21 21 21 21 20 20 19 19 18 17 17 16 16 16 16 16 14 15 15 16 16 15 15 15 16 17 18 19 19 18 17 17 17 17 17
21 21 21 20 19 18 17 17 17 17 17 17 17 17 16 17 17 17 16 16 16 15 14 14 14 15 15 15 16 15 14 15 15 16 16 17 18 19 18 18 17 17 17
18 17 17 17 17 17 16 16 16 15 16 16 16 17 17 17 17 16 16 16 15 14 14 13 13 13 13 13 14 15 16 14 14 14 15 17 17 18 18 18 18 17 17
17 17 17 17 17 17 18 20 21 19 19 19 17 17 17 17 16 16 15 14 14 14 13 13 13 13 14 12 12 13 12 12 12 12 13 14 15 16 17 18 18 18 18
18 18 18 18 19 19 19 20 21 20 21 21 21 18 18 17 16 15 15 14 18 17 15 12 12 13 13 13 12 11 11 11 11 10 11 12 13 13 14 18 19 18 18
17 17 17 18 18 19 19 19 20 21 21 21 21 21 18 17 19 19 18 18 18 17 14 13 12 12 12 11 11 11 10 10 9 9 10 11 11 11 14 14 16 17 18
19 20 19 20 20 20 20 20 21 21 21 22 21 19 18 18 20 21 19 18 18 18 16 13 13 12 11 11 11 10 10 9 9 9 9 9 11 11 11 11 13 13 16
18 19 20 21 21 19 20 21 21 22 22 21 20 18 17 18 20 20 19 18 18 17 18 17 16 14 13 12 11 11 10 10 9 9 9 9 9 9 10 10 11 12 14
20 19 20 20 21 20 20 21 21 20 19 20 20 19 17 17 16 16 16 16 15 15 14 15 15 15 15 15 15 14 15 15 14 12 11 10 10 10 11 11 11 12 14
18 19 20 20 20 20 19 19 18 18 19 19 18 17 17 16 16 14 14 14 14 14 14 14 14 13 13 13 13 14 11 11 11 12 12 12 12 12 10 10 10 11 12
18 19 19 19 18 18 18 18 17 16 16 16 16 16 15 14 13 13 13 12 12 12 13 13 12 11 10 9 9 9 9 10 9 9 10 11 12 12 12 10 10 10 10
17 15 15 16 16 15 16 15 14 13 13 14 14 15 14 13 13 12 12 13 13 13 13 12 11 11 11 10 9 9 9 9 9 9 9 10 9 9 8 8 8 8 9
Height
782 781 783 783 782 788 790 790 793 795 798 801 803 805 805 805 805 805 805 805 805 805 804 803 801 800 799 799 800 802 804 808 814 821 823 824 825 826 827 829 831 831 833
781 782 784 784 785 790 792 793 795 796 799 798 802 803 804 805 804 803 803 803 803 803 803 803 802 800 799 798 799 802 804 806 811 817 823 824 826 827 829 831 833 835 835
778 781 781 784 787 792 794 794 796 797 799 800 801 803 804 805 804 805 804 803 803 803 804 803 802 801 801 800 801 802 805 808 810 814 820 824 826 828 830 832 834 836 838
775 780 782 783 787 789 792 793 797 798 799 800 802 803 803 805 807 806 805 805 804 803 804 804 803 802 802 802 802 804 806 808 812 815 820 824 826 829 831 832 834 837 839
772 778 779 782 786 788 790 792 794 798 800 801 803 805 805 803 804 805 805 806 806 805 804 804 803 801 802 802 804 805 806 808 811 814 818 821 824 827 829 832 834 836 839
767 772 777 781 783 785 787 790 794 797 799 800 799 803 806 805 803 803 802 803 805 806 805 805 805 803 802 802 802 804 806 808 810 812 814 817 821 825 828 830 832 834 837
766 767 773 777 781 782 785 788 791 797 800 800 799 799 803 805 806 806 804 803 803 804 805 805 804 804 805 804 803 803 805 805 808 811 813 815 817 821 825 828 831 832 831
768 767 768 771 775 779 782 784 789 796 800 799 798 799 801 801 803 805 805 805 804 803 803 803 804 805 805 806 805 806 807 807 808 810 811 813 816 819 822 824 828 831 831
759 758 761 763 770 774 778 779 788 794 797 797 795 795 798 800 801 803 803 805 804 803 803 803 803 804 804 805 806 806 808 809 810 810 811 812 814 817 819 823 827 828 828
754 758 762 761 763 771 775 778 783 790 791 793 792 794 794 794 796 799 803 803 802 801 802 802 802 803 804 805 806 806 807 809 811 812 812 813 814 816 818 821 824 825 826
751 755 760 762 767 768 774 775 779 783 787 788 787 789 791 790 791 795 798 801 799 798 797 798 799 800 801 803 804 806 806 808 811 813 814 815 815 817 818 820 822 822 822
751 755 758 760 763 765 768 773 775 779 783 783 782 784 785 787 788 789 792 796 798 797 795 795 797 799 800 800 801 801 802 804 806 808 810 812 814 816 817 818 819 820 820
750 752 754 758 761 762 763 767 772 775 776 775 776 778 779 781 783 786 787 790 792 794 794 792 793 795 798 800 801 801 802 803 802 803 803 803 805 807 810 814 815 815 816
750 751 754 758 757 760 764 767 767 769 770 770 768 771 775 778 779 782 782 784 787 789 790 792 792 792 793 795 796 797 799 801 800 800 798 799 800 803 807 808 810 811 810
747 748 751 752 756 758 763 764 763 765 765 766 767 769 771 774 777 777 780 780 781 782 785 786 788 789 790 791 791 792 793 794 794 793 793 793 794 797 799 801 804 805 804
742 743 746 749 750 754 759 761 761 761 762 762 764 767 770 772 772 773 774 777 777 776 777 779 781 783 783 784 784 786 785 786 789 790 794 791 790 791 793 796 797 800 799
739 741 745 743 747 752 755 761 760 761 761 762 765 768 769 771 771 770 771 771 773 775 769 772 773 777 778 777 777 778 778 782 784 785 785 785 785 788 789 789 790 794 795
741 743 744 745 749 750 751 753 756 756 757 760 764 767 768 767 768 770 770 768 768 765 764 765 766 768 769 770 772 772 774 774 777 779 781 783 784 784 784 781 783 785 788
746 745 746 748 751 747 750 753 754 755 757 759 760 761 764 765 765 767 768 766 764 762 764 765 766 767 769 769 768 768 768 769 771 773 776 778 779 781 781 776 774 776 778
749 749 750 750 751 752 750 750 751 753 755 756 756 758 760 761 761 760 762 762 761 762 764 764 761 763 766 766 765 764 763 764 767 768 770 771 772 773 771 770 770 770 772
750 748 748 749 750 751 750 750 751 753 753 751 754 756 759 761 758 757 758 758 759 759 763 763 761 763 766 764 763 762 761 760 761 761 763 764 766 766 766 770 769 769 766
753 751 749 746 747 750 750 750 750 750 749 751 756 757 760 760 758 757 758 759 759 760 760 761 759 762 764 763 763 762 761 759 757 757 757 758 759 760 762 764 764 761 759
749 750 748 747 746 747 748 747 747 751 754 754 757 758 762 762 763 763 764 764 764 763 763 761 760 762 762 761 760 759 757 756 754 754 753 752 753 752 753 753 756 755 751
748 747 746 744 745 745 748 750 751 754 754 756 759 761 763 763 765 767 767 766 765 764 764 764 765 764 763 762 760 758 755 754 753 752 751 750 748 746 746 746 745 745 743
747 746 744 744 745 745 748 751 753 758 760 762 764 764 766 768 769 770 769 769 768 768 769 768 767 765 764 763 761 759 757 754 751 750 749 748 745 743 741 739 736 735 734
744 746 747 746 747 748 751 755 760 764 765 765 766 767 767 769 772 772 771 771 771 770 769 769 767 765 765 764 761 759 757 754 751 750 748 746 744 743 742 738 735 733 730
Wind_Speed
7 7 7 7 7 6 7 8 10 12 12 10 8 5 4 4 4 4 3 2 3 4 4 4 4 5 6 6 6 7 8 8 9 5 14 14 15 16 15 13 13 16 15
8 7 7 8 10 9 9 9 9 10 10 11 7 6 4 2 2 3 3 1 1 3 5 5 5 3 3 1 4 8 9 9 11 16 15 12 14 13 14 14 11 10 12
13 11 11 11 11 9 8 8 9 10 10 8 8 6 5 4 4 3 3 3 3 4 4 4 5 5 3 2 5 8 9 9 17 16 12 16 15 16 16 13 11 11 9
14 12 13 14 12 10 9 9 8 8 8 8 7 7 7 5 4 4 4 3 3 4 4 4 4 4 3 3 5 7 9 11 12 16 12 14 15 15 15 16 11 10 11
17 15 14 14 12 10 10 10 9 8 8 7 6 5 6 7 6 6 4 4 3 3 3 3 3 3 2 4 2 5 9 10 13 15 13 13 13 17 17 13 12 13 11
22 19 17 16 15 13 11 11 9 8 8 9 10 6 5 5 7 9 8 4 3 2 2 2 2 5 3 3 6 9 8 8 12 13 14 15 15 15 17 17 16 15 12
21 22 20 19 16 14 13 12 9 7 10 11 10 9 6 5 7 6 6 4 4 3 1 0 1 1 3 2 3 5 7 11 10 11 13 17 17 21 20 18 17 16 8
20 20 20 20 18 15 13 12 9 11 12 12 10 8 7 7 9 8 6 5 5 5 3 2 2 2 2 3 3 3 4 5 8 8 10 14 15 20 20 20 18 14 5
22 22 24 23 20 18 16 15 12 13 12 12 10 10 9 8 10 11 9 8 6 5 5 5 4 4 5 5 2 2 3 4 8 10 8 12 15 17 21 17 17 15 10
20 19 21 24 24 21 19 17 16 14 13 12 9 9 10 10 12 13 14 10 8 8 7 6 8 6 7 6 3 4 4 3 3 4 7 9 11 14 19 18 17 17 14
17 18 22 21 20 20 19 18 17 16 14 13 10 10 11 12 12 15 18 14 13 11 10 9 8 9 9 9 7 4 4 4 5 5 5 7 10 12 15 17 16 17 16
15 19 22 22 22 21 19 18 17 18 17 14 13 13 14 13 15 16 19 21 16 13 12 8 5 9 10 10 9 10 10 8 8 9 9 9 10 11 13 15 14 13 13
15 18 21 21 20 19 21 21 19 17 17 15 14 15 15 12 13 15 19 21 22 22 15 12 13 11 10 12 13 12 10 10 11 12 12 12 13 13 13 13 13 12 12
15 17 18 19 19 18 18 19 18 16 16 15 15 13 12 8 10 11 12 17 21 22 23 19 16 16 15 15 14 16 15 14 14 14 13 13 13 14 15 15 14 13 14
17 16 17 19 18 15 17 16 15 14 15 13 11 8 6 7 8 9 10 10 13 17 20 15 13 15 16 16 18 17 20 19 22 20 18 16 16 17 18 18 17 16 16
16 16 16 14 11 9 9 6 9 11 11 11 10 6 3 6 9 10 12 14 16 16 15 17 16 17 19 20 21 24 24 24 24 20 20 19 20 20 20 20 19 20 19
8 12 14 16 16 12 8 5 6 6 4 3 4 4 4 7 8 10 12 11 13 16 15 17 18 19 23 24 26 23 23 26 22 21 24 22 18 21 21 22 22 21 22
9 10 12 14 14 14 13 6 5 11 9 9 8 6 5 6 9 10 10 9 8 11 14 17 17 17 18 20 22 28 22 22 25 23 20 17 18 20 23 24 25 23 24
9 8 9 11 10 12 8 7 5 2 4 5 5 7 8 7 7 10 12 8 9 7 7 9 12 14 16 17 18 20 22 23 25 23 25 26 19 20 27 24 23 24 22
10 10 9 8 6 5 6 4 4 4 5 5 5 3 8 4 7 9 6 4 5 5 7 7 6 10 13 15 15 15 17 17 22 23 25 22 22 23 20 16 16 18 23
1 6 6 7 8 7 6 5 5 7 8 6 3 3 2 8 11 6 5 5 7 6 4 6 5 6 8 9 10 10 11 13 16 18 21 26 29 26 24 26 27 25 30
7 7 6 5 5 5 6 5 6 8 3 4 3 6 7 5 5 5 5 5 5 6 8 5 4 4 5 5 5 6 7 9 10 14 17 21 23 28 28 27 26 29 30
8 6 6 6 8 6 5 7 1 1 2 2 2 5 6 5 6 6 6 6 6 6 6 5 5 6 7 7 5 5 8 8 9 10 12 14 18 22 25 30 31 30 30
11 10 11 8 9 9 6 5 4 5 5 5 6 7 7 8 9 9 8 8 8 8 7 7 7 8 7 7 7 8 11 12 11 12 15 14 18 18 24 27 28 31 30
12 11 10 8 6 5 4 5 9 9 10 8 8 8 8 8 8 8 8 7 7 6 6 6 7 9 10 10 9 9 10 10 9 12 12 11 14 18 19 17 17 18 24
3 1 1 1 6 10 10 14 13 12 12 11 8 9 10 11 9 9 8 8 7 7 6 6 6 8 8 8 11 10 10 13 15 15 13 10 11 12 13 15 17 21 24
Wind_Direction
193 155 153 145 122 145 146 135 146 148 154 158 166 185 191 196 211 232 251 268 284 315 318 313 315 304 264 227 209 181 160 154 127 118 144 144 135 134 135 132 132 128 125
167 147 154 121 125 145 156 148 153 146 152 149 154 150 155 168 205 197 187 166 36 5 356 349 357 328 301 249 151 154 148 162 145 141 150 151 150 151 141 131 126 126 127
163 166 150 144 144 157 163 154 152 152 153 151 143 136 122 108 88 108 123 107 80 53 26 13 4 351 25 75 109 129 140 144 160 155 147 161 151 157 150 136 129 127 129
163 169 162 158 161 159 160 155 159 161 163 153 151 148 134 109 94 88 81 82 85 80 57 35 25 22 33 80 122 138 144 141 151 151 149 157 158 161 155 146 137 139 136
167 176 168 164 167 161 165 165 163 172 173 167 163 173 168 150 143 126 104 80 59 62 54 56 54 60 148 151 160 160 163 163 168 163 159 160 164 165 171 166 152 155 162
171 173 173 172 172 171 172 169 168 179 191 179 169 180 205 206 183 162 142 127 106 79 82 64 56 43 72 145 186 178 185 190 183 177 174 173 174 180 174 173 174 170 172
177 168 173 176 177 174 171 169 167 203 207 192 178 174 190 208 221 209 172 166 171 175 173 164 208 104 101 119 149 150 175 183 186 189 186 187 180 186 184 184 181 188 188
186 172 173 172 178 175 174 170 173 208 214 204 190 188 199 209 215 221 221 222 222 215 220 224 250 219 191 168 168 160 168 180 184 195 203 196 199 192 193 184 184 184 196
190 180 180 173 180 178 180 172 185 205 213 213 204 203 214 225 229 228 224 235 239 233 228 229 226 228 226 180 193 191 194 191 215 202 206 198 199 199 190 174 181 196 194
196 191 189 179 179 183 183 179 186 207 212 220 208 217 221 218 232 228 226 232 228 236 232 236 238 212 230 200 204 223 226 219 201 180 197 202 200 202 193 192 198 201 208
191 189 195 189 190 183 188 183 191 203 216 213 218 224 229 223 220 229 227 235 247 231 237 224 225 230 220 216 210 227 247 195 208 199 185 181 180 186 198 208 210 216 227
193 195 200 195 194 189 189 196 198 207 214 215 221 229 234 229 228 231 229 229 239 253 253 251 232 240 232 226 219 220 217 199 204 209 211 209 207 205 208 214 225 234 243
208 204 203 204 203 200 198 201 206 211 226 216 223 232 238 232 230 239 240 238 234 237 246 250 234 242 238 234 228 227 225 213 218 218 219 216 214 214 211 212 218 227 236
228 211 212 211 203 209 214 214 204 203 216 228 233 235 246 232 231 235 229 239 241 242 244 251 246 242 239 234 228 229 220 224 235 232 226 223 212 205 210 212 216 221 223
233 213 210 207 206 208 223 220 223 224 226 222 240 239 242 242 248 251 251 240 234 246 241 232 233 233 229 229 226 224 221 218 228 229 234 228 220 219 221 220 225 227 226
235 209 200 186 164 197 209 245 228 229 236 225 228 216 222 246 255 265 260 258 259 255 250 229 233 239 232 227 227 221 218 222 227 227 239 236 236 229 229 231 227 232 230
201 174 167 159 163 166 152 170 144 125 130 166 177 209 207 247 281 279 271 270 270 263 242 238 241 241 241 239 228 232 233 230 230 225 233 243 241 244 246 241 236 233 235
115 126 133 137 148 157 161 175 228 175 192 198 209 218 260 277 288 290 283 280 262 255 249 244 237 239 242 237 236 233 237 233 233 234 233 252 247 248 250 241 237 231 236
74 99 124 142 163 132 133 160 198 181 239 234 206 216 239 254 276 280 275 262 294 303 283 267 270 264 264 253 254 256 249 245 241 234 235 235 247 252 261 252 236 240 240
108 101 87 81 92 116 134 162 193 204 220 232 230 261 167 202 240 223 214 282 308 308 294 279 281 280 277 266 263 259 253 247 239 231 232 237 232 239 257 270 272 266 245
216 155 157 159 169 177 179 189 196 221 215 223 207 119 305 299 288 297 305 317 317 304 286 275 287 281 275 276 273 263 258 248 240 244 247 233 232 239 239 245 244 254 256
268 260 236 242 179 200 212 201 225 233 259 18 9 76 359 286 304 322 338 334 332 318 312 317 289 248 267 281 286 282 267 262 261 266 261 251 235 230 235 240 245 255 261
289 281 277 272 267 254 226 249 246 354 204 95 16 44 28 37 33 20 9 5 356 349 345 343 337 337 347 338 309 295 299 307 300 265 248 244 241 236 237 238 242 256 263
280 283 279 271 263 258 243 226 138 85 92 85 77 73 63 53 50 47 39 35 38 41 43 44 44 32 21 16 11 8 7 351 340 309 304 284 261 250 243 244 245 249 254
261 252 261 278 265 217 157 122 87 84 91 90 89 78 72 64 56 45 38 31 30 28 21 33 40 38 43 38 39 27 13 6 357 9 360 330 302 298 294 294 288 266 253
290 335 315 119 104 107 114 111 109 107 101 99 91 79 72 76 65 59 51 42 44 53 51 42 43 44 42 30 19 11 7 4 3 356 5 345 344 333 323 320 311 300 280